This is the latest recevied weather packets stored in our database for station/object IV3CLI-10. If no packets are shown the sender has not sent any weather packets the latest 10 day(s).
| Time | Temp. | Humidity | Pressure | Rain* | Wind** | Luminosity | Snow |
|---|---|---|---|---|---|---|---|
| 1777985683 | 13.89° C | 100% | 1014.2 hPa | - | - | - | - |
| 1777984783 | 13.33° C | 100% | 1014.6 hPa | - | - | - | - |
| 1777983883 | 15° C | 100% | 1014.8 hPa | - | - | - | - |
| 1777982983 | 15° C | 100% | 1014.9 hPa | - | - | - | - |
| 1777982083 | 14.44° C | 100% | 1014.8 hPa | - | - | - | - |
| 1777981183 | 14.44° C | 100% | 1014.8 hPa | - | - | - | - |
| 1777980283 | 14.44° C | 100% | 1014.8 hPa | - | - | - | - |
| 1777979657 | 15° C | 100% | 1015 hPa | - | - | - | - |
| 1777979382 | 15° C | 100% | 1015 hPa | - | - | - | - |
| 1777978492 | 14.44° C | 100% | 1015.1 hPa | - | - | - | - |
| 1777977592 | 15.56° C | 100% | 1015 hPa | - | - | - | - |
| 1777976692 | 15.56° C | 100% | 1015.1 hPa | - | - | - | - |
| 1777975792 | 16.67° C | 100% | 1015 hPa | - | - | - | - |
| 1777974892 | 17.22° C | 100% | 1014.9 hPa | - | - | - | - |
| 1777973992 | 16.67° C | 100% | 1014.9 hPa | - | - | - | - |
| 1777973092 | 16.67° C | 100% | 1014.8 hPa | - | - | - | - |
| 1777972192 | 16.67° C | 100% | 1014.9 hPa | - | - | - | - |
| 1777971292 | 17.22° C | 100% | 1014.8 hPa | - | - | - | - |
| 1777970391 | 17.78° C | 100% | 1014.9 hPa | - | - | - | - |
| 1777969491 | 18.33° C | 100% | 1014.7 hPa | - | - | - | - |
| 1777968591 | 17.78° C | 100% | 1014.7 hPa | - | - | - | - |
| 1777967691 | 17.78° C | 100% | 1014.5 hPa | - | - | - | - |
| 1777966791 | 17.78° C | 100% | 1014.7 hPa | - | - | - | - |
| 1777965891 | 18.33° C | 100% | 1014.7 hPa | - | - | - | - |
| 1777964991 | 18.33° C | 100% | 1014.7 hPa | - | - | - | - |
* Rain since midnight (hover to see other rain measurements)
** Current wind speed in m/s (hover to see current wind gust speed)